フルス彗星

P/2021 N2 ( Fuls )

English version
Home page
Updated on November 26, 2022

---------------------------------------------------------------------

・ プロフィール

発見日 2021年7月9日
発見光度 18.3等
発見者 David Carson Fuls (Catalina Sky Survey)

・ 写真集

・ 軌道要素

Epoch 2022 Aug. 9.0 TT = JDT 2459800.5
T 2021 Nov. 13.52308 TT                                 Rudenko
q   3.7968645            (2000.0)            P               Q
n   0.05397689     Peri.  177.38272     +0.77500065     -0.61378614
a   6.9342178      Node   221.74081     +0.57562978     +0.78388301
e   0.4524452      Incl.   13.06218     +0.26081477     +0.09377634
P  18.3
From 778 observations 2021 June 27-2022 Oct. 5, mean residual 0".3.

・ 星図

・ 光度変化

        m1 = -44.5 + 5 logΔ + 100   log r(t - 30)  [  ,30]  (              〜2021年12月13日)
        m1 =   4.7 + 5 logΔ +  15.0 log r          [30,  ]  (2021年12月13日〜              )

---------------------------------------------------------------------

軌道要素はM.P.E.C. 2022-T100に掲載されたものです。
星図はステラナビゲータ Ver.10 (アストロアーツ) で作成したものです。
光度グラフはComet for Windowsで作成したものです。

---------------------------------------------------------------------

Copyright(C) Seiichi Yoshida (comet@aerith.net). All rights reserved.